sat.trackr.live / text

‹ back to catalog

JILIN GAOFEN OBJECT A

NORAD 68691 · 2026-080A

PAYLOAD ACTIVE UNKNOWN

§ Identity

Operator
Country
PRC
Launch date
2026-04-14
Launch site
JSC
Launch vehicle
Mass (kg)
RCS (m²)

External: N2YO · Heavens-Above · Gunter

§ Orbital elements

Epoch: 2026-05-21T02:14:39.153408Z

Period
95.45 min
Inclination
97.6617°
Eccentricity
0.0013393
Mean motion
15.08617800 rev/d
Perigee alt
531.2 km
Apogee alt
549.7 km
Semi-major
6,918.6 km
B*
2.8499e-4
RAAN
216.6604°
Arg perigee
151.8197°
Mean anomaly
208.3759°
Rev number
557

§ Raw data

JILIN GAOFEN OBJECT A1 68691U 26080A   26141.09350872  .00004403  00000+0  28499-3 0  99992 68691  97.6617 216.6604 0013393 151.8197 208.3759 15.08617800  5571

JSON: /api/v1/satellites/68691 · /tle

For live sub-satellite position, see the globe view (requires WebGL).

§ Visibility from observer

Set your observer location to see the next 7 days of passes ≥ 10°. The values pass through the URL so the page stays shareable.

No JS? Fill the form by hand. The geolocation button needs JavaScript.